STARLINK-35211

Last updated on Mon Oct 20 2025 00:02:06 GMT+0000 (Coordinated Universal Time)

1 65757U 25216Z 25292.23111376 .00136066 00000+0 24086-2 0 9993 2 65757 53.1588 272.2171 0001335 104.2170 255.8987 15.49350999 4856
UTC large
Height (km)
Speed (km/s)
/
Latitude / Longitude
Inclination (degrees)
Orbital Period (minutes)
Azimuth
Elevation
Range (km)
Doppler Factor

Next 0 passes for location: London (51.5072 / 0.1276)

Sorry there are no passes over London.